Location: Austin
(30.3000°N, 97.7500°W)
Time: 20:00:22
(UTC-06:00)

Cosmos 1655 Rocket - Pass Details

Date: 31 October 2024
Orbit: 970 x 1005 km, 82.9° (Epoch: 05 November)

Event Time Altitude Azimuth Distance (km) Brightness Sun altitude
Rises 07:10:36 0° 191° (S) 3,715 7.1 -8.0°
Reaches altitude 10° 07:13:08 10° 193° (SSW) 2,769 6.4 -7.5°
Maximum altitude 07:19:28 68° 276° (W) 1,073 4.1 -6.2°
Drops below altitude 10° 07:25:50 10° 360° (N) 2,777 6.3 -4.8°
Sets 07:28:23 0° 3° (N) 3,726 6.9 -4.3°
